Change the Weather History Date:

Thursday, July 11, 2013

  Actual Average Record
Temperature  
Mean Temperature 82 °F -  
Max Temperature 93 °F 90 °F 105 °F (2004)
Min Temperature 71 °F 72 °F 62 °F (1998)
Cooling Degree Days 17    
Growing Degree Days 32 (Base 50)    
Moisture  
Dew Point 54 °F    
Average Humidity 37    
Maximum Humidity 53    
Minimum Humidity 21    
Precipitation  
Precipitation 0.00 in - - ()
Sea Level Pressure  
Sea Level Pressure 29.78 in    
Wind  
Wind Speed 5 mph ()    
Max Wind Speed 14 mph    
Max Gust Speed -    
Visibility 6.2 miles    
Events      
Averages and records for this station are not official NWS values.
T = Trace of Precipitation, MM = Missing Value Source: Averaged Metar Reports

Daily Weather History Graph

Daily Weather History Graph

Search for Another Location

Airport or City:

Trip Planner

Search our weather history database for the weather conditions in past years. The results will help you decide how hot, cold, wet, or windy it might be!

Date:

Astronomy

Jul. 11, 2013 Rise Set
Actual Time 6:12 AM EEST 8:49 PM EEST
Civil Twilight 5:41 AM EEST 9:20 PM EEST
Nautical Twilight 5:02 AM EEST 9:59 PM EEST
Astronomical Twilight 4:19 AM EEST 10:42 PM EEST
Moon 9:09 AM EEST (7/11) 10:25 PM EEST (7/11)
Length of Visible Light 15h 39m
Length of Day
14h 37m
Waxing Crescent, 9% of the Moon is Illuminated
Jul 11
Waxing Crescent
Jul 16
First Quarter
Jul 22
Full
Jul 29
Last Quarter
Aug 7
New

Hourly Weather History & Observations

Time (EEST) Temp. Heat Index Dew Point Humidity Pressure Visibility Wind Dir Wind Speed Gust Speed Precip Events Conditions
12:50 AM 77.0 °F - 51.8 °F 41% 29.77 in - Calm Calm - N/A   Clear
1:50 AM 75.2 °F - 53.6 °F 47% 29.77 in - NNW 5.8 mph - N/A   Clear
2:50 AM 75.2 °F - 53.6 °F 47% 29.77 in - Calm Calm - N/A   Clear
3:50 AM 73.4 °F - 53.6 °F 50% 29.77 in - Calm Calm - N/A   Clear
4:50 AM 73.4 °F - 53.6 °F 50% 29.77 in - Calm Calm - N/A   Clear
5:50 AM 71.6 °F - 53.6 °F 53% 29.77 in - Calm Calm - N/A   Clear
6:20 AM 71.6 °F - 53.6 °F 53% 29.77 in - Calm Calm - N/A   Clear
6:50 AM 73.4 °F - 53.6 °F 50% 29.77 in - North 4.6 mph - N/A   Clear
7:20 AM 77.0 °F - 53.6 °F 44% 29.77 in - Calm Calm - N/A   Clear
7:50 AM 78.8 °F - 53.6 °F 42% 29.77 in - NW 5.8 mph - N/A   Clear
8:20 AM 80.6 °F 80.8 °F 57.2 °F 45% 29.77 in - NNW 9.2 mph - N/A   Clear
8:50 AM 82.4 °F 82.0 °F 57.2 °F 42% 29.77 in - NNW 8.1 mph - N/A   Clear
9:20 AM 84.2 °F 82.8 °F 53.6 °F 35% 29.77 in - NNW 8.1 mph - N/A   Clear
9:50 AM 86.0 °F 84.2 °F 53.6 °F 33% 29.77 in - North 6.9 mph - N/A   Clear
10:20 AM 86.0 °F 84.2 °F 53.6 °F 33% 29.77 in - NNW 9.2 mph - N/A   Clear
10:50 AM 87.8 °F 85.7 °F 53.6 °F 31% 29.77 in - North 10.4 mph - N/A   Clear
11:20 AM 87.8 °F 85.7 °F 53.6 °F 31% 29.80 in - NNW 10.4 mph - N/A   Clear
11:50 AM 89.6 °F 87.3 °F 53.6 °F 29% 29.77 in 6.2 mi North 9.2 mph - N/A   Partly Cloudy
12:20 PM 89.6 °F 87.3 °F 53.6 °F 29% 29.77 in 6.2 mi North 8.1 mph - N/A   Partly Cloudy
12:50 PM 91.4 °F 89.1 °F 53.6 °F 28% 29.77 in 6.2 mi North 10.4 mph - N/A   Partly Cloudy
1:20 PM 91.4 °F 89.1 °F 53.6 °F 28% 29.77 in 6.2 mi NNE 11.5 mph - N/A   Scattered Clouds
1:50 PM 89.6 °F - 51.8 °F 27% 29.77 in 6.2 mi North 13.8 mph - N/A   Scattered Clouds
2:20 PM 91.4 °F - 51.8 °F 26% 29.77 in 6.2 mi North 13.8 mph - N/A   Scattered Clouds
2:50 PM 93.2 °F - 50.0 °F 23% 29.77 in 6.2 mi North 10.4 mph - N/A   Scattered Clouds
3:20 PM 93.2 °F - 50.0 °F 23% 29.77 in 6.2 mi North 13.8 mph - N/A   Scattered Clouds
3:50 PM 93.2 °F - 50.0 °F 23% 29.77 in 6.2 mi NNW 10.4 mph - N/A   Scattered Clouds
4:20 PM 93.2 °F - 50.0 °F 23% 29.74 in 6.2 mi NNE 9.2 mph - N/A   Scattered Clouds
4:50 PM 93.2 °F - 48.2 °F 21% 29.74 in 6.2 mi North 5.8 mph - N/A   Scattered Clouds
5:20 PM 93.2 °F - 48.2 °F 21% 29.74 in 6.2 mi NNW 8.1 mph - N/A   Scattered Clouds
5:50 PM 89.6 °F 88.1 °F 57.2 °F 33% 29.74 in 6.2 mi South 10.4 mph - N/A   Partly Cloudy
6:20 PM 89.6 °F 88.1 °F 57.2 °F 33% 29.74 in 6.2 mi South 10.4 mph - N/A   Partly Cloudy
6:50 PM 86.0 °F 84.9 °F 57.2 °F 37% 29.77 in 6.2 mi South 13.8 mph - N/A   Partly Cloudy
7:20 PM 86.0 °F 84.9 °F 57.2 °F 37% 29.77 in - South 12.7 mph - N/A   Clear
7:50 PM 86.0 °F 84.9 °F 57.2 °F 37% 29.77 in - South 11.5 mph - N/A   Clear
8:20 PM 84.2 °F 83.8 °F 59.0 °F 42% 29.80 in - South 6.9 mph - N/A   Clear
9:20 PM 82.4 °F 82.0 °F 57.2 °F 42% 29.80 in - Calm Calm - N/A   Clear
9:50 PM 82.4 °F 82.0 °F 57.2 °F 42% 29.80 in - Calm Calm - N/A   Clear
10:20 PM 80.6 °F 81.1 °F 59.0 °F 48% 29.83 in - Calm Calm - N/A   Clear
10:50 PM 80.6 °F 81.1 °F 59.0 °F 48% 29.83 in - Calm Calm - N/A   Clear
11:20 PM 78.8 °F - 59.0 °F 51% 29.83 in - Calm Calm - N/A   Clear
11:50 PM 77.0 °F - 57.2 °F 50% 29.83 in - Calm Calm - N/A   Clear